{"data":{"norad_id":65258,"epoch":"2026-05-25T02:09:23.897952Z","epoch_age_seconds":64333,"freshness":"FRESH","line1":"1 65258U 25179Z   26145.08985993 -.00001055  00000+0 -69039-4 0  9992","line2":"2 65258  97.4504 187.8951 0001075 200.1315 159.9870 15.05648000 43310","mean_motion":15.05648,"eccentricity":0.0001075,"inclination_deg":97.4504,"raan_deg":187.8951,"arg_perigee_deg":200.1315,"mean_anomaly_deg":159.987,"bstar":-6.9039e-5,"rev_number":4331,"period_min":95.639883956941,"perigee_km":548.77256601157,"apogee_km":550.26201168367,"semimajor_km":6927.6542888476,"source":"CELESTRAK","updated_at":"2026-05-25T13:38:20.728916Z"}}